Flag for U.S.A. Weather past 2 weeks in Key West, Florida, U.S.A.

Now
84 °F

Clear.


Feels Like: 92 °F
Forecast: 85 / 91 °F
Wind: 3 mph from Northeast

Location: Key West International Airport

Current Time: Aug 21, 2014 at 12:36:33 AM

Latest Report: Aug 20, 2014 at 11:53 PM


Visibility: 10 mi

Pressure: 30.09 "Hg

Humidity: 74%

Dew point: 75 °F

Location of Key WestLocation

Historic Weather in Key West — Graph

°F

Key West temperature yesterday

Maximum temperature yesterday: 90 °F (at 10:53 AM)
Minimum temperature yesterday: 81 °F (at 2:00 PM)
Average temperature yesterday: 85 °F

Past Weeks' High & Low Weather Summary

 TemperatureHumidityPressure
High92 °F (Aug 17, 2:53 PM)94% (Aug 7, 2:53 AM)30.11 "Hg (Aug 7, 2:53 AM)
Low81 °F (Aug 6, 10:53 AM)57% (Aug 10, 3:53 PM)29.95 "Hg (Aug 7, 6:53 PM)
Average87 °F68%30.03 "Hg
* Reported Aug 5 10:53 PM — Aug 20 10:53 PM, Key West, Weather by CustomWeather, © 2014

Note: Actual official high and low records may vary slightly from our data, if they occured in-between our weather recording intervals... More about our weather records

Advertising

Key West weather history for previous 24 hours

 ConditionsComfort  
Time TempWeatherWind HumidityBarometerVisibility
10:53 PM
Aug 20
84 °FClear.5 mph72%30.08 "Hg10 mi
9:53 PM83 °FClear.6 mph70%30.07 "Hg10 mi
8:53 PM84 °FScattered clouds.7 mph70%30.07 "Hg10 mi
7:53 PM83 °FSunny.6 mph65%30.07 "Hg10 mi
7:04 PM84 °FPassing clouds.7 mph72%30.06 "Hg10 mi
6:53 PM84 °FThundershowers. Passing clouds.7 mph74%30.07 "Hg10 mi
5:53 PM82 °FThundershowers. Passing clouds.No wind74%30.06 "Hg10 mi
4:53 PM81 °FThunderstorms. Broken clouds.17 mph79%30.06 "Hg6 mi
3:53 PM88 °FThundershowers. Overcast.No wind67%30.06 "Hg10 mi
2:53 PM88 °FSunny.5 mph67%30.06 "Hg10 mi
2:03 PM81 °FThunderstorms. Mostly cloudy.8 mph72%30.08 "Hg1 mi
2:00 PM81 °FStrong thunderstorms. Mostly cloudy.7 mph72%30.08 "Hg1 mi
12:53 PM88 °FMostly cloudy.5 mph65%30.09 "Hg10 mi
11:53 AM85 °FLight rain. Scattered clouds.7 mph70%30.09 "Hg10 mi
10:53 AM90 °FPassing clouds.8 mph61%30.09 "Hg10 mi
9:53 AM89 °FThundershowers. Sunny.6 mph65%30.07 "Hg10 mi
8:53 AM88 °FScattered clouds.6 mph67%30.06 "Hg10 mi
7:53 AM87 °FClear.7 mph69%30.03 "Hg10 mi
6:53 AM86 °FClear.7 mph70%30.02 "Hg10 mi
5:53 AM86 °FPassing clouds.8 mph72%30.01 "Hg10 mi
4:53 AM86 °FPassing clouds.9 mph72%30.00 "Hg10 mi
3:53 AM86 °FClear.8 mph72%29.99 "Hg10 mi
2:53 AM86 °FClear.9 mph72%30.01 "Hg10 mi
1:53 AM86 °FClear.9 mph65%30.01 "Hg10 mi
12:53 AM86 °FClear.9 mph67%30.02 "Hg10 mi
Weather by CustomWeather, © 2014

See weather overviewHow to use our weather pages